SCP
1 1 1 1 1 1 1 1 1 1 0 0 0 1 1 1 1 1 1 1 1 1 1 1 1 0 0 0 0 0 0 0 0 0 0 0 0 0 1 1 1 1 1
1 1 1 1 1 1 1 1 1 0 0 0 1 1 1 1 1 1 1 1 1 1 1 1 1 0 0 0 0 0 0 0 0 0 0 0 0 0 0 1 1 1 1
1 1 1 1 1 1 1 1 0 0 0 0 0 1 1 1 1 1 1 1 1 1 1 1 0 0 0 0 0 0 0 0 0 0 0 0 0 0 0 0 1 1 1
0 0 0 0 0 0 0 0 0 0 0 0 0 0 0 1 1 1 0 0 0 0 0 0 0 0 0 0 0 0 0 0 0 -0 0 0 0 0 0 0 0 1 1
0 0 0 0 0 0 0 0 0 0 0 0 0 0 0 0 0 0 0 0 0 0 0 0 0 0 0 0 0 0 0 0 0 -0 0 0 1 1 1 0 0 0 1
0 0 0 0 0 0 0 0 0 0 0 0 0 0 0 0 0 0 0 0 0 0 0 0 0 0 0 0 0 0 0 0 0 0 0 1 1 1 1 1 1 1 1
0 0 0 0 0 0 0 0 0 0 0 0 0 0 0 0 0 0 0 0 0 0 0 0 0 0 0 0 0 0 0 0 0 0 0 1 1 1 1 1 1 1 1
1 0 0 0 0 0 0 0 0 0 0 0 0 0 0 0 0 0 0 0 0 0 0 0 0 0 0 0 0 0 0 0 0 0 0 1 1 1 1 1 1 1 1
1 0 0 0 0 0 0 0 0 0 0 0 0 0 0 0 0 0 0 0 0 0 0 0 0 0 0 0 0 0 0 0 0 0 0 1 1 1 1 1 1 1 1
1 1 0 0 0 0 0 0 0 0 0 0 0 0 0 0 0 0 0 0 0 0 0 0 0 0 0 0 0 0 -0 -0 0 0 0 0 1 1 1 1 0 0 0
1 1 1 0 0 0 0 0 0 0 0 0 0 0 0 0 0 0 0 0 0 0 0 0 0 0 0 0 0 0 0 -0 0 0 0 0 0 0 0 0 0 0 0
1 1 1 1 1 0 0 0 0 0 0 0 0 0 0 0 0 0 0 0 0 0 0 0 0 0 0 0 0 0 0 0 0 0 0 0 0 0 0 0 0 0 0
1 1 1 1 1 1 1 1 0 0 0 0 0 0 0 0 0 0 0 0 0 0 0 0 0 0 0 0 0 0 0 0 0 0 0 0 0 0 0 0 0 0 0
1 1 1 1 1 1 1 1 1 1 0 0 0 0 0 0 0 0 0 0 0 0 0 0 0 0 0 0 0 0 0 0 0 0 0 0 1 0 0 0 1 1 1
1 1 1 1 2 2 2 1 1 1 1 1 1 1 0 0 0 1 1 0 0 0 0 0 0 0 0 0 0 0 0 0 0 0 0 0 0 1 1 1 1 1 1
2 2 2 2 3 3 2 2 1 1 1 1 1 1 1 1 1 1 1 1 1 1 1 1 1 1 1 0 0 0 0 0 0 0 0 0 0 0 1 1 0 0 0
4 4 3 3 3 3 2 2 2 2 2 2 2 1 1 1 1 1 1 1 1 1 1 1 1 1 1 1 1 1 1 1 1 1 1 1 0 0 0 0 0 0 0
5 5 5 4 4 3 3 2 2 3 3 3 2 2 2 1 1 1 1 1 1 1 1 1 1 1 1 1 1 1 1 1 1 1 1 1 0 0 0 0 0 0 0
8 8 7 6 5 5 4 4 4 4 4 4 3 3 2 1 1 1 2 1 1 1 1 1 1 1 1 1 0 0 0 0 0 0 0 0 0 0 0 0 0 0 0
11 10 9 8 8 6 6 5 5 5 4 4 3 3 2 1 1 1 1 1 1 1 1 1 0 0 0 0 0 0 0 0 0 0 0 0 0 0 0 0 0 0 0
13 13 12 10 9 8 7 6 6 5 4 3 3 2 1 1 1 1 1 1 0 0 0 0 0 0 0 0 0 0 0 0 0 0 0 0 0 0 0 0 0 0 0
15 14 13 11 10 9 8 7 5 4 3 2 1 1 1 1 0 0 0 0 0 0 0 0 0 0 0 0 0 0 0 0 0 0 0 0 0 0 0 0 0 0 0
14 13 11 10 9 8 7 6 4 3 2 1 1 0 0 0 0 0 0 0 0 0 0 0 0 0 0 0 0 0 0 0 0 0 0 0 0 0 0 0 0 0 0
11 10 9 8 7 6 5 4 3 2 1 1 0 0 0 0 0 0 0 0 0 0 0 0 0 0 0 0 0 0 0 0 0 0 0 0 0 0 0 0 0 0 0
7 6 6 5 5 4 4 3 3 2 1 1 0 0 0 0 0 0 0 0 0 0 0 0 0 0 0 0 0 0 0 0 0 0 0 0 0 0 0 0 0 0 0
4 4 4 3 3 3 3 2 2 1 1 0 0 0 0 0 0 0 0 0 0 0 0 0 0 0 0 0 0 0 0 0 0 0 0 0 0 0 0 0 0 0 0
Wind_Speed
17 17 18 16 14 13 12 12 13 13 13 13 12 12 11 11 11 11 11 12 12 12 13 12 12 11 10 9 9 9 8 7 7 7 7 8 8 8 8 9 7 8 12
20 17 17 16 14 13 13 13 13 13 13 13 12 12 11 11 11 10 10 11 11 12 12 11 11 10 9 8 7 6 5 4 3 2 3 5 6 6 6 8 10 8 9
19 16 16 15 14 14 13 13 13 13 13 13 12 12 11 11 10 10 10 9 10 10 11 11 10 9 8 7 5 4 2 1 1 2 4 4 7 7 6 6 7 8 7
18 15 15 15 14 14 13 13 13 13 13 13 12 12 11 10 9 9 9 9 9 9 9 9 9 8 6 5 4 2 1 3 4 6 6 4 6 9 7 6 6 6 5
16 15 16 16 14 13 13 12 12 13 13 12 12 11 10 10 9 8 8 9 8 8 8 8 7 6 5 4 2 1 3 5 7 8 6 1 5 10 9 7 5 5 4
17 17 16 15 14 13 12 11 11 12 12 11 11 10 9 9 8 7 8 8 7 7 7 7 6 5 4 3 1 2 4 7 8 8 4 4 7 8 9 7 5 4 4
17 17 16 15 14 13 12 11 10 10 10 10 10 9 8 8 7 7 7 7 6 6 6 6 5 5 3 2 0 3 6 9 7 6 4 8 8 9 8 7 5 4 4
18 17 15 15 15 13 12 11 10 9 9 9 8 8 8 7 7 7 7 7 6 6 6 6 5 4 3 1 1 4 7 10 8 3 6 9 9 9 8 7 6 5 4
18 18 15 14 13 13 12 11 10 9 9 8 8 8 7 7 7 7 7 7 7 6 6 5 5 4 3 2 3 5 8 10 8 4 6 7 10 9 8 7 6 5 4
16 17 16 15 14 12 11 12 11 11 10 9 9 8 8 8 8 8 8 7 7 7 6 6 5 5 4 4 5 7 8 9 7 1 6 8 10 9 8 6 5 5 4
14 14 16 16 14 13 13 13 12 11 10 10 9 9 8 7 7 7 8 9 8 7 7 7 7 7 7 7 8 9 7 6 5 4 6 10 10 9 7 5 5 4 4
14 14 13 15 14 14 12 11 9 9 9 8 7 8 7 5 4 7 10 10 9 9 8 9 9 8 8 6 8 9 4 6 2 5 7 12 10 8 6 5 4 4 4
13 11 14 13 10 11 10 9 7 6 7 9 8 8 5 4 5 6 5 6 6 8 6 7 8 7 5 1 1 3 2 3 2 4 7 11 10 8 6 5 4 4 4
14 12 14 13 9 8 9 7 6 6 6 5 6 5 4 2 2 3 4 5 5 4 5 4 4 3 0 2 2 3 4 2 2 3 6 10 9 8 6 5 4 4 3
14 11 12 12 8 5 5 5 6 5 5 5 5 3 3 2 1 2 1 1 1 1 2 1 1 2 2 3 3 3 3 4 4 2 5 8 9 8 8 7 5 4 4
13 12 11 12 10 7 4 2 3 5 4 5 4 4 3 2 2 2 1 1 2 3 4 3 3 3 2 2 4 4 4 4 4 3 1 6 8 8 9 9 8 6 5
12 11 11 12 11 8 7 5 4 5 5 5 4 4 3 2 3 1 1 1 2 2 2 2 3 2 2 2 3 3 2 3 4 4 3 1 4 8 11 10 8 7 6
13 11 11 12 13 9 7 5 4 4 5 5 5 4 4 3 2 1 2 3 2 2 2 2 2 3 4 4 4 4 4 3 4 4 4 4 3 3 8 10 9 8 8
13 12 10 9 13 11 8 5 4 4 5 5 5 4 4 4 4 3 4 4 2 2 4 4 5 4 4 4 4 4 3 4 4 6 5 5 4 2 2 7 11 11 11
13 11 9 8 10 10 8 5 5 6 5 5 6 5 5 4 5 4 4 4 4 4 4 4 3 3 3 3 6 6 4 6 6 6 6 5 3 3 3 3 2 6 11
11 11 9 9 8 7 6 7 6 6 5 5 6 6 6 6 6 4 5 3 3 4 4 4 3 4 3 2 3 4 5 7 7 5 3 2 2 2 2 3 2 3 4
12 11 9 9 9 7 5 4 5 6 6 6 6 6 6 6 4 5 4 3 4 2 2 1 1 2 3 3 3 4 4 5 3 5 3 2 2 2 3 6 4 4 4
11 10 9 8 8 6 7 6 6 5 6 6 5 4 5 5 5 5 4 4 3 2 2 1 2 2 3 4 3 2 3 3 5 5 6 5 4 3 3 4 6 6 7
10 8 8 8 7 6 7 7 8 7 6 6 5 5 5 4 4 4 4 4 3 2 3 3 5 3 3 3 3 2 3 3 3 4 4 5 6 5 4 6 7 6 6
11 9 8 8 7 6 5 6 6 5 5 5 6 6 5 4 4 4 4 3 1 1 3 3 2 3 3 3 4 4 5 4 4 5 7 5 5 5 5 5 5 5 5
11 10 9 9 7 6 5 4 4 7 7 7 6 5 4 5 4 3 4 2 1 2 2 1 1 2 1 2 2 3 4 4 5 5 7 7 6 5 6 5 6 6 6
Wind_Direction
111 116 115 111 106 101 102 112 118 123 123 122 118 113 106 100 95 90 88 89 91 94 96 97 96 93 87 79 71 66 62 59 58 64 75 80 78 73 66 56 38 89 89
115 118 117 114 111 107 105 111 117 119 122 122 119 115 111 106 101 96 93 93 95 98 99 100 100 97 92 86 79 72 65 58 53 59 100 122 113 98 80 63 54 81 92
113 121 121 118 116 112 109 111 114 117 119 119 117 115 113 109 106 102 99 99 101 103 104 105 104 102 99 95 89 80 65 31 286 263 249 210 145 132 111 85 79 87 90
121 132 126 125 121 117 114 113 114 117 118 117 116 115 113 111 108 107 105 105 105 106 108 108 107 106 104 100 94 76 344 290 279 275 252 218 148 142 132 111 102 102 102
124 123 127 132 126 122 118 117 118 118 118 117 116 115 114 111 109 109 109 109 108 109 110 109 108 107 104 99 89 6 301 291 290 276 271 149 122 142 136 126 123 127 129
129 126 134 135 132 128 125 122 121 121 120 119 118 117 115 113 113 112 111 111 112 112 110 109 108 108 107 103 84 311 296 293 294 271 234 116 117 132 127 126 129 139 153
130 128 138 139 136 135 132 130 128 126 123 122 121 120 118 115 113 112 111 112 113 112 110 110 113 114 114 113 17 298 295 295 279 282 92 97 107 117 115 115 114 117 149
129 129 137 142 142 141 141 139 136 131 127 125 124 124 123 121 120 118 116 115 113 112 112 116 121 125 130 144 264 284 288 291 290 302 101 101 110 112 112 108 105 103 103
132 133 145 148 148 148 148 146 141 136 133 132 133 135 137 138 137 133 128 124 124 124 125 129 135 143 156 193 249 270 278 285 289 276 101 101 109 109 109 109 110 108 107
141 143 149 151 153 156 156 153 149 146 146 147 150 156 159 160 158 152 147 138 140 141 143 149 160 174 189 213 238 255 270 287 271 234 100 106 107 109 110 113 115 115 115
145 145 150 150 157 161 157 152 153 156 159 161 169 177 179 187 172 167 150 149 156 160 164 173 187 199 208 222 239 250 265 261 256 109 103 117 118 120 123 127 131 134 135
150 150 147 148 159 162 152 149 164 171 169 186 179 181 195 191 170 152 151 165 172 177 181 198 207 215 220 219 226 240 252 260 287 108 115 125 124 127 135 147 157 163 166
154 154 147 151 160 155 142 165 169 171 165 193 180 181 183 172 160 155 162 170 186 189 198 202 213 224 221 191 240 240 273 330 349 93 121 126 127 133 145 162 178 186 189
160 160 152 147 156 152 149 163 158 156 172 174 156 177 163 184 178 157 172 178 186 191 195 194 216 199 60 322 297 302 310 305 356 99 135 137 138 145 157 170 186 200 208
160 161 151 145 136 120 115 153 159 146 158 141 145 170 153 165 169 123 110 83 294 149 152 271 324 48 16 309 298 304 332 342 331 8 129 153 154 161 172 181 190 202 217
158 157 141 138 130 124 127 165 126 129 119 127 133 141 135 107 93 79 82 73 347 29 37 359 359 10 336 340 330 331 335 323 325 336 136 162 177 183 190 195 199 207 224
151 147 138 142 140 148 160 182 153 143 140 127 117 117 115 94 97 77 100 108 36 39 48 1 354 330 303 306 302 308 309 301 302 315 315 246 195 202 208 207 207 215 233
151 147 152 159 151 160 165 184 156 145 133 124 123 119 115 100 95 72 67 72 24 10 36 26 14 356 2 354 345 340 331 314 295 281 269 261 248 228 209 207 212 223 240
147 150 160 158 153 162 159 158 119 105 109 113 107 105 101 91 82 68 76 60 5 33 43 21 43 16 356 348 323 301 306 307 305 291 281 269 262 260 236 211 221 235 249
141 148 157 150 150 154 150 145 128 118 109 100 94 92 95 89 71 52 89 62 27 49 53 42 19 359 328 305 301 309 305 285 274 266 266 264 254 263 274 276 241 246 259
144 150 150 153 148 150 150 155 145 137 125 108 104 98 87 80 76 60 76 80 59 63 56 34 19 340 316 326 312 298 281 270 262 254 259 271 274 292 306 302 287 276 275
151 151 151 151 153 159 148 142 136 129 119 105 97 96 92 84 73 87 69 65 69 64 90 59 22 328 322 340 322 308 301 295 337 349 351 330 328 340 327 307 309 298 287
153 157 157 152 153 155 134 121 113 102 109 115 125 112 100 99 86 72 73 58 38 5 77 20 8 355 338 326 309 310 313 319 342 319 338 342 341 320 305 304 291 278 273
146 141 136 134 134 128 127 136 143 152 152 144 136 121 109 100 101 94 82 71 37 12 52 12 56 356 338 314 327 338 325 325 299 306 315 311 309 307 297 288 283 283 279
132 127 123 121 122 126 133 146 154 143 124 121 121 128 129 119 114 115 108 88 57 44 70 41 32 357 333 347 348 341 331 318 285 277 293 300 303 293 285 279 279 281 283
125 123 123 120 116 119 123 127 129 123 125 128 129 140 155 150 145 134 123 97 55 57 63 36 18 305 337 355 329 317 309 307 314 313 307 304 298 300 303 304 295 282 275